Location: White Ridge parking lot
(35.4984°N, 106.8413°W)
Time: 02:24:16
(UTC-06:00)

ITAMSAT 1 - Pass Details

Date: 22 September 2019
Orbit: 784 x 797 km, 98.9° (Epoch: 14 October)

Event Time Altitude Azimuth Distance (km) Brightness Sun altitude
Rises 05:54:52 0° 21° (NNE) 3,278 11.3 -13.0°
Reaches altitude 10° 05:57:18 10° 28° (NNE) 2,347 10.7 -12.6°
Maximum altitude 06:02:13 43° 100° (E) 1,094 9.0 -11.6°
Drops below altitude 10° 06:07:07 10° 171° (S) 2,341 10.1 -10.6°
Sets 06:09:32 0° 178° (S) 3,268 10.8 -10.1°
